Other Surface Observations
Issued by NWS Tucson, AZ

Home | Current Version | Previous Version | Text Only | Print | Product List | Glossary On
Versions: 1 2 3 4 5 6 7 8 9 10 11 12 13 14 15 16 17 18 19 20 21 22 23 24 25 26 27 28 29 30 31 32 33 34 35 36 37 38 39 40 41 42 43 44 45 46 47 48 49 50
000
SXUS55 KTWC 302316
OSOTWC

WEATHER ROUNDUP FOR SOUTHEAST ARIZONA
NATIONAL WEATHER SERVICE TUCSON AZ
415 PM MST THU JUL 30 2015

AZZ504>506-514-310015-
LOCATION       SKY/WX    TMP DP  RH WIND       PRES   REMARKS
TUCSON         SUNNY     98  56  24 S9        30.02F
DAVIS-MONTHAN  MOSUNNY   97  56  25 NW2       30.00F
CHILDRENS PARK N/A       97  56  26 W3                PIMA CO DEQ
ALVERNON/22ND  N/A      N/A N/A N/A N/A               PIMA CO DEQ
CHERRY/GLENN   N/A      N/A N/A N/A N/A               PIMA CO DEQ
TANGERINE      N/A      100 N/A N/A SW2               PIMA CO DEQ
CONTL RANCH    N/A      101  56  23 E3                PIMA CO DEQ
GRANT/1ST      N/A       98  56  25 SW3               PIMA CO DEQ
CRAYCROFT/22ND N/A      N/A N/A N/A N/A               PIMA CO DEQ
GOLFLINKS/KOLB N/A      N/A N/A N/A N/A               PIMA CO DEQ
AJO/12TH       N/A       97  56  26 E2                PIMA CO DEQ
SAGUARO EAST   N/A      N/A N/A N/A N/A               PIMA CO DEQ
FAIRGROUNDS    N/A       96 N/A N/A NE5               PIMA CO DEQ
SAGUARO        N/A       99  58  26 S6G11             *SABINO CYN
SAN CARLOS     N/A       98  56  25 S4G11             *SAN CARLOS
GREEN VALLEY   N/A       95  59  30 SW1               PIMA CO DEQ
HORSE CAMP CYN N/A       92  56  30 W9G14             *ARAVAIPA CYN
RINCON MTNS    N/A       66  56  71 SE2               *NR MANNING CAMP
$$

AZZ509>511-310015-
LOCATION       SKY/WX    TMP DP  RH WIND       PRES   REMARKS
SAFFORD        MOSUNNY   93  56  28 VRB5      30.05F
STRAY HORSE    N/A       64  49  59 NW7G12            *
TRAIL CABIN    N/A       82  57  43 W4G10             *N OF GRANVILLE
BLACK HILLS    N/A       96  56  26 SW5G13            *N OF FT THOMAS
DRY LAKE       N/A       76  57  51 SE5G12            *NATANES MTNS
NOON CREEK     N/A       87  58  38 N4G13             *PINALENO MTNS
COLUMBINE      N/A       69  53  56 SE4G11            *PINALENO MTNS
GUTHRIE        N/A       80  53  40 S4G11             *SW OF GUTHRIE
$$

AZZ502-503-513-310015-
LOCATION       SKY/WX    TMP DP  RH WIND       PRES   REMARKS
NOGALES        LGT RAIN  89  58  34 E12       30.11F
SELLS          N/A       98  58  27 W4                *
SASABE         N/A       94  60  33 N5G10             *ALTAR VLY
HOPKINS        N/A       79  62  56 W5G10             *SANTA RITA MTNS
CARR CYN       N/A       80  60  51 CALM              *W OF HEREFORD
$$

AZZ507-508-512-310015-
LOCATION       SKY/WX    TMP DP  RH WIND       PRES   REMARKS
SIERRA VISTA   PTSUNNY   85  58  39 SW9       30.19F
DOUGLAS          N/A    N/A N/A N/A MISG      30.12F
EMPIRE MTNS    N/A       89  60  38 W3G10             *LAS CIENEGAS NCA
MULESHOE RANCH N/A       90  58  34 NE6G11            *PRESERVE
HEADQUARTERS   N/A       79  62  56 E3G10             *CHIRICAHUA MTNS
$$

.............................NOTES.............................
THIS IS AN AUTOMATED COLLECTIVE WITH MINIMAL QUALITY CONTROL.
PIMA CO DEQ SITES HAVE NONSTANDARD WIND SENSOR HEIGHTS.
PIMA CO DEQ SITES DO NOT REPORT WIND GUSTS.
* INDICATES WIND SENSORS LOCATED AT 20 FEET INSTEAD OF 33 FEET.
..............................KEY..............................
SKY/WX - SKY CONDITION/WEATHER
TMP    - TEMPERATURE IN FAHRENHEIT
DP     - DEWPOINT IN FAHRENHEIT
RH     - RELATIVE HUMIDITY IN PERCENT
WIND   - DIRECTION AND SPEED IN MILES PER HOUR (MPH)
VRB    - VARIABLE WIND DIRECTION
PRES   - MEAN SEA LEVEL PRESSURE IN INCHES OF MERCURY
         F - FALLING PRESSURE   R - RISING PRESSURE
         S - STEADY PRESSURE
VSB    - VISIBILITY IN MILES
HX     - HEAT INDEX IN FAHRENHEIT
WCI    - WIND CHILL INDEX IN FAHRENHEIT
N/A    - NOT AVAILABLE
AFB    - AIR FORCE BASE
         DAVIS-MONTHAN IS DAVIS-MONTHAN AIR FORCE BASE
CYN    - CANYON
MTNS   - MOUNTAINS
NCA    - NATIONAL CONSERVATION AREA
NR     - NEAR
VLY    - VALLEY
CONTL  - CONTINENTAL
PIMA CO DEQ - PIMA COUNTY DEPT OF ENVIRONMENTAL QUALITY



USA.gov is the U.S. government's official web portal to all federal, state and local government web resources and services.